Weather in Poselok pri zh/d stantsii Kobostovo

Russia / Yaroslavl Oblast     57°58′13″N   38°29′22″E
temp.,
°C
wind,
m/s
gust,
m/s
humid.,
%
clouds,
%
prec.,
mm/h
press.,
hPa
HPBL,
m
8 august, mon
mon800:00+14nw2595100 1.6 1021206
03:00+14nne259255 1.7 1021193
06:00+13ene139345 0.0 1022112
09:00+16ne247854 0.0 1023536
12:00+20nne345722 0.0 10231116
15:00+20n3351100 0.0 10231130
18:00+19ne1261100 0.0 1023376
21:00+14wnw117871 0.0 102318
9 august, tue
tue900:00+13ne1288100 0.0 102321
03:00+13nne228680 0.0 102338
06:00+13nne2480100 0.0 1023114
09:00+17nne3465100 0.0 1023405
12:00+19n4657100 0.0 1023692
15:00+20n355298 0.0 10221008
18:00+20nne35566 0.0 1022894
21:00+15n22754 0.0 102225
10 august, wed
wed1000:00+13n25885 0.1 102299
03:00+13n24935 0.1 102369
06:00+14n38885 0.0 1023292
09:00+17n456812 0.0 1023722
12:00+19n56525 0.0 10231053
15:00+20nnw57420 0.0 10221621
18:00+19n57527 0.0 1023886
21:00+14nw22755 0.0 102319
11 august, thu
thu1100:00+12nw22810 0.0 102431
03:00+11nw23820 0.0 102450
06:00+12wnw23805 0.0 102667
09:00+18wnw12505 0.0 1025480
12:00+22wnw23385 0.0 10251750
15:00+23w24355 0.0 10241930
18:00+22wsw3647100 0.0 1023348
21:00+16sw366585 0.0 102397
12 august, fri
fri1200:00+15wsw3867100 0.0 1023164
03:00+14wsw3873100 0.0 1023149
06:00+14wsw397597 0.0 1023211
09:00+20wsw475325 0.0 1023517
12:00+25wsw564220 0.0 10221387
15:00+26w463914 0.0 10211747
18:00+25wsw36495 0.0 1021448
21:00+18wsw367172 0.0 102290